Location: Houston
(29.7631°N, 95.3631°W)
Time: 13:34:47
(UTC-05:00)

UNISAT 6 - Pass Details

Date: 19 September 2021
Orbit: 606 x 687 km, 97.7° (Epoch: 27 October)

Event Time Altitude Azimuth Distance (km) Brightness Sun altitude
Rises 20:31:57 0° 6° (N) 3,057 ? -16.1°
Reaches altitude 10° 20:34:14 10° 3° (N) 2,139 ? -16.6°
Maximum altitude 20:38:51 61° 284° (WNW) 780 ? -17.5°
Drops below altitude 10° 20:43:25 10° 205° (SSW) 2,113 ? -18.5°
Sets 20:45:39 0° 201° (SSW) 3,016 ? -19.0°
